ITASAT 1 (43786 NORAD) Tracking and Keplerian Element Data

This shows tracking and keplerian element data for the satellite.

Feedback or suggestion? Click here.




ElementValue
Catalog43786
NameITASAT 1
Epoch Orbit673
Epoch Day17.79506998
Epoch Year2019
RAAN91.5181
Inclination97.7649
Eccentricity0.0016633
Argument of Perigee113.4844
Mean Anonmoly246.8127
Mean Motion14.95044758
Decay Rate1.34E-06
L11 43786U 18099AE 19017.79506998 .00000134 00000-0 17508-4 0 9999
L22 43786 97.7649 91.5181 0016633 113.4844 246.8127 14.95044758 6734

Live tracking and technical data element details for ITASAT 1 (NORAD 43786). ITASAT 1 can be tracked NOW for your location showing map with azimuth and elevation plus other details from your city location.

Track the satellite on the map from your city or location and see movement details for azimuth, elevation, latitude, longitude, range, height, and movement on the map or in text.







IsCatalogInMostPopularTable: catalog: 43786, numindb: 18
Update: records affected: 1



GetName: 43786 ITASAT 1

Hit Count: updated at: Fri, 18 Jan 2019 22:54:45 GMT